FW5145 Weather Reports


time (UTC)temp
C
wind
direction
speed
KPH
gust
KPH
rain 1hr
cm
rain 24hr
cm
rain mn
cm
humidity
%
barometer
mb
20260510113531 11 137 9.7 24.1 0.00 0.00 0.00 100 1016.2
20260510113044 11 50 6.4 25.7 0.00 0.00 0.00 100 1016.2
20260510112534 11 5 9.7 25.7 0.00 0.00 0.00 100 1016.2
20260510112032 11 32 6.4 22.5 0.00 0.00 0.00 100 1016.3
20260510111543 11 19 6.4 30.6 0.00 0.00 0.00 100 1016.3
20260510111031 11 28 8.0 30.6 0.00 0.00 0.00 100 1016.3
20260510110532 11 37 8.0 25.7 0.00 0.00 0.00 100 1016.4
20260510110038 11 22 8.0 24.1 0.00 0.00 0.00 100 1016.3
20260510105533 11 57 8.0 24.1 0.00 0.00 0.00 100 1016.4
20260510105035 11 102 8.0 27.4 0.00 0.00 0.00 100 1016.5
20260510104542 11 63 11.3 27.4 0.00 0.00 0.00 100 1016.5
20260510104031 11 325 8.0 20.9 0.00 0.00 0.00 100 1016.6
20260510103534 11 9 6.4 16.1 0.00 0.00 0.00 100 1016.5
20260510103048 11 18 6.4 22.5 0.00 0.00 0.00 100 1016.5
20260510102532 11 49 8.0 25.7 0.00 0.00 0.00 100 1016.7
20260510102032 11 52 9.7 25.7 0.00 0.00 0.00 100 1016.6
20260510101544 11 62 9.7 24.1 0.00 0.00 0.00 100 1016.5
20260510101031 11 63 9.7 27.4 0.00 0.00 0.00 100 1016.5
20260510100531 10 79 8.0 27.4 0.00 0.00 0.00 100 1016.5
20260510100109 10 343 8.0 24.1 0.00 0.00 0.00 100 1016.4
20260510095532 10 24 9.7 25.7 0.00 0.00 0.00 100 1016.5
20260510095031 10 54 9.7 25.7 0.00 0.00 0.00 100 1016.5
20260510094541 10 104 6.4 22.5 0.00 0.00 0.00 100 1016.6
20260510094033 10 39 4.8 22.5 0.00 0.00 0.00 100 1016.6
20260510093532 10 40 8.0 17.7 0.00 0.00 0.00 100 1016.5
20260510093048 10 56 8.0 19.3 0.00 0.00 0.00 100 1016.5
20260510092532 10 28 8.0 22.5 0.00 0.00 0.00 100 1016.6
20260510092031 10 5 6.4 22.5 0.00 0.00 0.00 100 1016.6
20260510091544 10 268 9.7 22.5 0.00 0.00 0.00 100 1016.7
20260510091033 10 21 6.4 20.9 0.00 0.00 0.00 100 1016.8
20260510090533 10 28 8.0 20.9 0.00 0.00 0.00 100 1016.7
20260510090045 10 15 4.8 20.9 0.00 0.00 0.00 100 1016.7
20260510085535 10 352 8.0 19.3 0.00 0.00 0.00 100 1016.8
20260510085031 10 24 3.2 20.9 0.00 0.00 0.00 100 1017.0
20260510084543 10 26 8.0 20.9 0.00 0.00 0.00 100 1017.0
20260510084031 10 25 6.4 19.3 0.00 0.00 0.00 100 1017.0
20260510083531 10 39 4.8 19.3 0.00 0.00 0.00 100 1017.0
20260510083052 10 82 6.4 19.3 0.00 0.00 0.00 100 1016.9
20260510082531 10 34 4.8 19.3 0.00 0.00 0.00 100 1017.1
20260510082032 10 360 4.8 20.9 0.00 0.00 0.00 100 1017.1
20260510081547 10 20 8.0 20.9 0.00 0.00 0.00 100 1017.1
20260510081031 10 14 3.2 14.5 0.00 0.00 0.00 100 1017.1
20260510080532 10 42 3.2 24.1 0.00 0.00 0.00 100 1017.0
20260510080043 10 346 4.8 24.1 0.00 0.00 0.00 100 1017.0
20260510075533 10 52 8.0 24.1 0.00 0.00 0.00 100 1016.9
20260510075031 10 11 4.8 19.3 0.00 0.00 0.00 100 1016.8
20260510074545 10 5 6.4 19.3 0.00 0.00 0.00 100 1016.9
20260510074035 10 54 8.0 17.7 0.00 0.00 0.00 100 1016.9
20260510073531 10 62 4.8 17.7 0.00 0.00 0.00 100 1016.9
20260510073049 10 94 6.4 19.3 0.00 0.00 0.00 100 1017.0
20260510072531 10 29 6.4 19.3 0.00 0.00 0.00 100 1017.0
20260510072034 10 17 4.8 14.5 0.00 0.00 0.00 100 1017.0
20260510071601 9 117 6.4 17.7 0.00 0.00 0.00 100 1016.9
20260510071031 9 46 6.4 17.7 0.00 0.00 0.00 100 1017.1
20260510070532 9 22 4.8 17.7 0.00 0.00 0.00 100 1017.0
20260510070037 9 15 6.4 17.7 0.00 0.00 0.00 100 1017.0
20260510065532 9 59 3.2 16.1 0.00 0.00 0.00 100 1017.0
20260510065035 9 345 4.8 19.3 0.00 0.00 0.00 100 1017.1
20260510064544 9 41 4.8 19.3 0.00 0.00 0.00 100 1017.1
20260510064031 9 352 4.8 16.1 0.00 0.00 0.00 100 1017.0
20260510063531 8 11 4.8 16.1 0.00 0.00 0.00 100 1017.1
20260510063045 8 43 3.2 14.5 0.00 0.00 0.00 100 1017.1
20260510062532 8 59 3.2 14.5 0.00 0.00 0.00 100 1017.2
20260510062032 8 40 4.8 14.5 0.00 0.00 0.00 100 1017.1
20260510061548 8 28 6.4 14.5 0.00 0.00 0.00 100 1017.1
20260510061031 8 31 4.8 12.9 0.00 0.00 0.00 100 1017.1
20260510060533 8 14 3.2 16.1 0.00 0.00 0.00 100 1017.1
20260510060046 8 24 3.2 16.1 0.00 0.00 0.00 100 1017.0
20260510055532 8 12 4.8 12.9 0.00 0.00 0.00 100 1017.0
20260510055032 8 46 4.8 14.5 0.00 0.00 0.00 100 1016.9
20260510054548 8 42 6.4 17.7 0.00 0.00 0.00 100 1016.9
20260510054032 8 71 3.2 17.7 0.00 0.00 0.00 100 1016.9
20260510053531 8 56 6.4 17.7 0.00 0.00 0.00 100 1016.8
20260510053043 8 36 3.2 16.1 0.00 0.00 0.00 100 1016.8
20260510052533 8 47 3.2 20.9 0.00 0.00 0.00 100 1017.0
20260510052031 8 17 4.8 20.9 0.00 0.00 0.00 100 1016.9
20260510051543 8 5 6.4 17.7 0.00 0.00 0.00 100 1016.8
20260510051031 8 36 6.4 14.5 0.00 0.00 0.00 100 1016.9
20260510050531 8 67 4.8 16.1 0.00 0.00 0.00 100 1016.8
20260510050041 8 80 4.8 16.1 0.00 0.00 0.00 100 1016.8
20260510045532 8 22 4.8 14.5 0.00 0.00 0.00 100 1016.8
20260510045031 8 43 3.2 16.1 0.00 0.00 0.00 100 1016.8
20260510044537 8 360 4.8 16.1 0.00 0.00 0.00 100 1016.7
20260510044035 8 53 3.2 16.1 0.00 0.00 0.00 100 1016.9
20260510043532 8 30 4.8 16.1 0.00 0.00 0.00 100 1016.8
20260510043047 8 61 4.8 16.1 0.00 0.00 0.00 100 1016.7
20260510042531 8 32 3.2 19.3 0.00 0.00 0.00 100 1016.7
20260510042034 8 11 6.4 19.3 0.00 0.00 0.00 100 1016.7
20260510041543 8 30 6.4 14.5 0.00 0.00 0.00 100 1016.8
20260510041031 8 352 6.4 17.7 0.00 0.00 0.00 100 1016.9
20260510040535 8 352 4.8 17.7 0.00 0.00 0.00 100 1016.8
20260510040042 8 13 6.4 14.5 0.00 0.00 0.00 100 1017.1
20260510035531 8 43 6.4 17.7 0.00 0.00 0.00 100 1017.0
20260510035033 8 335 6.4 17.7 0.00 0.00 0.00 100 1017.1
20260510034547 8 347 6.4 14.5 0.00 0.00 0.00 100 1017.1
20260510034033 8 5 4.8 19.3 0.00 0.00 0.00 100 1017.0
20260510033531 8 10 8.0 19.3 0.00 0.00 0.00 100 1017.1
20260510033100 8 39 4.8 16.1 0.00 0.00 0.00 100 1017.1
20260510032535 8 351 4.8 16.1 0.00 0.00 0.00 100 1017.1
20260510032032 8 15 4.8 12.9 0.00 0.00 0.00 100 1017.1
20260510031549 8 25 3.2 14.5 0.00 0.00 0.00 100 1017.2
20260510031031 8 360 4.8 14.5 0.00 0.00 0.00 100 1017.3
20260510030531 8 57 3.2 17.7 0.00 0.00 0.00 100 1017.2
20260510030044 8 120 4.8 17.7 0.00 0.00 0.00 100 1017.2
20260510025532 8 86 6.4 17.7 0.00 0.00 0.00 100 1017.2
20260510025031 8 304 4.8 14.5 0.00 0.00 0.00 100 1017.2
20260510024545 8 29 4.8 16.1 0.00 0.00 0.00 100 1017.1
20260510024032 8 51 3.2 17.7 0.00 0.00 0.00 100 1017.1
20260510023533 9 14 6.4 19.3 0.00 0.00 0.00 100 1017.2
20260510023044 9 29 6.4 20.9 0.00 0.00 0.00 100 1017.0
20260510022533 9 35 6.4 20.9 0.00 0.00 0.00 100 1017.1
20260510022033 9 16 8.0 17.7 0.00 0.00 0.00 100 1017.0
20260510021544 9 30 6.4 17.7 0.00 0.00 0.00 100 1017.1
20260510021031 9 11 8.0 17.7 0.00 0.00 0.00 100 1017.1
20260510020531 9 31 6.4 16.1 0.00 0.00 0.00 100 1017.1
20260510020045 9 23 4.8 17.7 0.00 0.00 0.00 100 1017.2
20260510015532 9 130 4.8 17.7 0.00 0.00 0.00 100 1017.2
20260510015033 9 74 6.4 20.9 0.00 0.00 0.00 100 1017.2
20260510014550 9 30 6.4 25.7 0.00 0.00 0.00 100 1017.1
20260510014032 10 53 6.4 25.7 0.00 0.00 0.00 100 1017.3
20260510013533 10 43 8.0 25.7 0.00 0.00 0.00 100 1017.2
20260510013038 10 9 8.0 19.3 0.00 0.00 0.00 100 1017.2
20260510012532 10 74 6.4 17.7 0.00 0.00 0.00 100 1017.3
20260510012033 10 26 6.4 12.9 0.00 0.00 0.00 100 1017.2
20260510011553 10 25 3.2 17.7 0.00 0.00 0.00 100 1017.3
20260510011032 10 51 6.4 17.7 0.00 0.00 0.00 100 1017.3
20260510010531 10 69 6.4 17.7 0.00 0.00 0.00 100 1017.4
20260510010043 10 47 4.8 14.5 0.00 0.00 0.00 100 1017.4
20260510005533 10 46 4.8 14.5 0.00 0.00 0.00 100 1017.4
20260510005031 10 9 3.2 16.1 0.00 0.00 0.00 100 1017.5
20260510004548 10 36 3.2 16.1 0.00 0.00 0.00 100 1017.4
20260510004031 10 39 4.8 12.9 0.00 0.00 0.00 100 1017.3
20260510003532 10 11 3.2 12.9 0.00 0.00 0.00 100 1017.3
20260510003103 10 36 4.8 16.1 0.00 0.00 0.00 100 1017.2
20260510002531 10 24 4.8 16.1 0.00 0.00 0.00 100 1017.3
20260510002031 10 46 4.8 12.9 0.00 0.00 0.00 100 1017.4
20260510001540 10 51 3.2 12.9 0.00 0.00 0.00 100 1017.4
20260510001032 10 22 3.2 14.5 0.00 0.00 0.00 100 1017.4
20260510000532 10 5 4.8 16.1 0.00 0.00 0.00 100 1017.5
20260510000046 11 9 4.8 16.1 0.00 0.00 0.00 100 1017.5
20260509235531 11 23 4.8 16.1 0.00 0.00 0.00 100 1017.5
20260509235032 11 76 4.8 14.5 0.00 0.00 0.00 100 1017.5
20260509234559 11 5 4.8 16.1 0.00 0.00 0.00 100 1017.6
20260509234032 11 55 4.8 16.1 0.00 0.00 0.00 100 1017.6
20260509233531 11 15 4.8 16.1 0.00 0.00 0.00 100 1017.5
20260509233042 11 105 4.8 16.1 0.00 0.00 0.00 100 1017.6
20260509232532 11 21 4.8 14.5 0.00 0.00 0.00 100 1017.6
20260509232031 11 68 6.4 14.5 0.00 0.00 0.00 100 1017.6
20260509231547 11 28 4.8 14.5 0.00 0.00 0.00 100 1017.5
20260509231032 11 53 4.8 14.5 0.00 0.00 0.00 100 1017.6
20260509230531 11 5 4.8 12.9 0.00 0.00 0.00 100 1017.7
20260509230053 11 39 4.8 12.9 0.00 0.00 0.00 100 1017.6
20260509225533 11 65 3.2 12.9 0.00 0.00 0.00 100 1017.7
20260509225031 11 105 3.2 12.9 0.00 0.00 0.00 100 1017.7
20260509224543 11 26 3.2 11.3 0.00 0.00 0.00 100 1017.6
20260509224032 11 56 3.2 9.7 0.00 0.00 0.00 100 1017.6
20260509223532 11 46 3.2 11.3 0.00 0.00 0.00 100 1017.6
20260509223036 11 28 3.2 11.3 0.00 0.00 0.00 100 1017.5
20260509222531 11 17 4.8 11.3 0.00 0.00 0.00 100 1017.5
20260509222035 11 73 3.2 12.9 0.00 0.00 0.00 100 1017.4
20260509221543 11 36 3.2 12.9 0.00 0.00 0.00 100 1017.7
20260509221032 11 62 1.6 9.7 0.00 0.00 0.00 100 1017.6
20260509220531 11 33 3.2 14.5 0.00 0.00 0.00 100 1017.6
20260509220043 11 40 1.6 14.5 0.00 0.00 0.00 100 1017.6
20260509215532 11 44 3.2 14.5 0.00 0.00 0.00 100 1017.5
20260509215033 11 44 3.2 12.9 0.00 0.00 0.00 100 1017.5
20260509214542 11 324 3.2 12.9 0.00 0.00 0.00 100 1017.5
20260509214031 11 22 3.2 9.7 0.00 0.00 0.00 100 1017.5
20260509213531 11 53 1.6 9.7 0.00 0.00 0.00 100 1017.6
20260509213041 11 47 1.6 9.7 0.00 0.00 0.00 100 1017.7
20260509212535 11 5 3.2 9.7 0.00 0.00 0.00 100 1017.6
20260509212032 11 50 1.6 8.0 0.00 0.00 0.00 100 1017.7
20260509211540 12 30 1.6 11.3 0.00 0.00 0.00 100 1017.7
20260509211031 12 86 3.2 12.9 0.00 0.00 0.00 100 1017.5
20260509210534 12 335 3.2 12.9 0.00 0.00 0.00 100 1017.5
20260509210050 12 53 1.6 12.9 0.00 0.00 0.00 100 1017.4
20260509205532 12 28 3.2 12.9 0.00 0.00 0.00 100 1017.6
20260509205031 12 54 3.2 12.9 0.00 0.00 0.00 100 1017.6
20260509204543 12 34 3.2 12.9 0.00 0.00 0.00 100 1017.5
20260509204032 12 58 3.2 12.9 0.00 0.00 0.00 100 1017.4
20260509203531 12 24 1.6 12.9 0.00 0.00 0.00 100 1017.4
20260509203041 12 22 3.2 12.9 0.00 0.00 0.00 100 1017.2
20260509202533 12 42 3.2 9.7 0.00 0.00 0.00 100 1017.1
20260509202032 12 61 3.2 9.7 0.00 0.00 0.00 100 1017.1
20260509201540 12 59 3.2 11.3 0.00 0.00 0.00 100 1017.2
20260509201031 12 36 3.2 11.3 0.00 0.00 0.00 100 1017.2
20260509200536 12 90 3.2 9.7 0.00 0.00 0.00 100 1017.2
20260509200036 13 69 3.2 9.7 0.00 0.00 0.00 100 1017.1
20260509195532 13 22 3.2 8.0 0.00 0.00 0.00 100 1017.1
20260509195034 13 34 3.2 8.0 0.00 0.00 0.00 100 1017.1
20260509194543 13 26 3.2 8.0 0.00 0.00 0.00 100 1017.0
20260509194032 13 21 1.6 6.4 0.00 0.00 0.00 100 1017.0
20260509193532 13 43 3.2 14.5 0.00 0.00 0.00 100 1017.1
20260509193043 13 21 1.6 14.5 0.00 0.00 0.00 100 1017.1
20260509192532 13 53 4.8 14.5 0.00 0.00 0.00 100 1017.0
20260509192031 13 49 3.2 14.5 0.00 0.00 0.00 100 1017.0
20260509191542 14 42 3.2 14.5 0.00 0.00 0.00 100 1016.7
20260509191032 14 30 1.6 9.7 0.00 0.00 0.00 100 1016.6
20260509190532 14 46 3.2 12.9 0.00 0.00 0.00 100 1016.6
20260509190042 14 42 3.2 12.9 0.00 0.00 0.00 100 1016.6
20260509185534 15 24 3.2 16.1 0.00 0.00 0.00 100 1016.7
20260509185032 15 42 3.2 16.1 0.00 0.00 0.00 100 1016.6
20260509184545 15 31 4.8 12.9 0.00 0.00 0.00 100 1016.6
20260509184035 15 25 4.8 14.5 0.00 0.00 0.00 100 1016.5
20260509183535 15 96 3.2 16.1 0.00 0.00 0.00 100 1016.5
20260509183107 15 10 4.8 16.1 0.00 0.00 0.00 100 1016.5
20260509182533 15 34 3.2 12.9 0.00 0.00 0.00 100 1016.5
20260509182034 16 34 4.8 14.5 0.00 0.00 0.00 100 1016.4
20260509181600 16 44 4.8 14.5 0.00 0.00 0.00 100 1016.4
20260509181033 16 88 6.4 14.5 0.00 0.00 0.00 100 1016.4
20260509180532 16 21 4.8 14.5 0.00 0.00 0.00 100 1016.4
20260509180043 16 15 3.2 12.9 0.00 0.00 0.00 100 1016.4
20260509175533 16 55 3.2 19.3 0.00 0.00 0.00 100 1016.5
20260509175032 16 55 4.8 19.3 0.00 0.00 0.00 100 1016.3
20260509174549 16 62 6.4 16.1 0.00 0.00 0.00 100 1016.4
20260509174033 17 34 4.8 17.7 0.00 0.00 0.00 100 1016.4
20260509173531 17 25 4.8 17.7 0.00 0.00 0.00 100 1016.2
20260509173044 17 24 4.8 19.3 0.00 0.00 0.00 100 1016.1
20260509172532 17 30 4.8 19.3 0.00 0.00 0.00 100 1016.0
20260509172032 17 50 6.4 19.3 0.00 0.00 0.00 100 1016.1
20260509171535 17 44 6.4 17.7 0.00 0.00 0.00 100 1016.2
20260509171031 17 58 4.8 16.1 0.00 0.00 0.00 100 1016.3
20260509170531 18 36 4.8 20.9 0.00 0.00 0.00 100 1016.2
20260509170043 18 13 6.4 20.9 0.00 0.00 0.00 100 1016.3
20260509165531 18 26 3.2 19.3 0.00 0.00 0.00 100 1016.2
20260509165032 18 25 4.8 19.3 0.00 0.00 0.00 100 1016.2
20260509164546 18 33 3.2 14.5 0.00 0.00 0.00 100 1016.3
20260509164032 18 61 3.2 17.7 0.00 0.00 0.00 100 1016.3
20260509163532 18 9 3.2 17.7 0.00 0.00 0.00 100 1016.3
20260509163041 18 18 4.8 14.5 0.00 0.00 0.00 100 1016.4
20260509162533 18 66 4.8 14.5 0.00 0.00 0.00 100 1016.4
20260509162032 18 62 3.2 20.9 0.00 0.00 0.00 100 1016.3
20260509161538 18 360 6.4 20.9 0.00 0.00 0.00 100 1016.2
20260509161034 18 36 8.0 20.9 0.00 0.00 0.00 100 1016.3
20260509160532 18 55 4.8 20.9 0.00 0.00 0.00 100 1016.3
20260509160045 18 352 6.4 17.7 0.00 0.00 0.00 100 1016.3
20260509155532 18 53 6.4 19.3 0.00 0.00 0.00 100 1016.4
20260509155032 18 50 4.8 20.9 0.00 0.00 0.00 100 1016.4
20260509154554 18 9 9.7 20.9 0.00 0.00 0.00 100 1016.2
20260509154031 18 67 9.7 19.3 0.00 0.00 0.00 100 1016.3
20260509153534 19 28 8.0 17.7 0.00 0.00 0.00 100 1016.4
20260509153049 19 21 4.8 17.7 0.00 0.00 0.00 100 1016.4
20260509152531 19 41 6.4 17.7 0.00 0.00 0.00 100 1016.4
20260509152032 20 67 6.4 17.7 0.00 0.00 0.00 100 1016.6
20260509151553 20 26 3.2 14.5 0.00 0.00 0.00 100 1016.6
20260509151033 20 105 4.8 14.5 0.00 0.00 0.00 100 1016.8
20260509150532 20 30 3.2 16.1 0.00 0.00 0.00 100 1016.8
20260509150044 19 31 4.8 16.1 0.00 0.00 0.00 100 1016.9
20260509145533 19 5 6.4 17.7 0.00 0.00 0.00 100 1016.8
20260509145032 19 19 4.8 19.3 0.00 0.00 0.00 100 1016.8
20260509144545 19 57 4.8 19.3 0.00 0.00 0.00 100 1016.7
20260509144031 19 69 6.4 14.5 0.00 0.00 0.00 100 1016.8
20260509143531 19 15 4.8 17.7 0.00 0.00 0.00 100 1016.7
20260509143044 19 44 8.0 17.7 0.00 0.00 0.00 100 1016.7
20260509142531 20 77 4.8 19.3 0.00 0.00 0.00 100 1016.7
20260509142031 20 78 8.0 19.3 0.00 0.00 0.00 100 1016.6
20260509141552 19 19 3.2 16.1 0.00 0.00 0.00 100 1016.5
20260509141033 20 5 6.4 20.9 0.00 0.00 0.00 100 1016.5
20260509140532 19 18 4.8 20.9 0.00 0.00 0.00 100 1016.4
20260509140057 19 69 6.4 16.1 0.00 0.00 0.00 100 1016.4
20260509135532 19 63 4.8 16.1 0.00 0.00 0.00 100 1016.4
20260509135031 19 112 6.4 17.7 0.00 0.00 0.00 100 1016.5
20260509134541 19 10 6.4 17.7 0.00 0.00 0.00 100 1016.5
20260509134033 19 9 3.2 16.1 0.00 0.00 0.00 100 1016.5
20260509133535 19 65 4.8 16.1 0.00 0.00 0.00 100 1016.6
20260509133045 19 35 6.4 16.1 0.00 0.00 0.00 100 1016.6
20260509132532 19 22 6.4 16.1 0.00 0.00 0.00 100 1016.7
20260509132033 20 36 4.8 14.5 0.00 0.00 0.00 100 1016.6
20260509131543 20 68 4.8 14.5 0.00 0.00 0.00 100 1016.5
20260509131031 19 51 6.4 14.5 0.00 0.00 0.00 100 1016.6
20260509130534 19 337 4.8 14.5 0.00 0.00 0.00 100 1016.6
20260509130042 20 118 3.2 17.7 0.00 0.00 0.00 100 1016.7
20260509125534 19 86 3.2 17.7 0.00 0.00 0.00 100 1016.7
20260509125032 19 93 4.8 17.7 0.00 0.00 0.00 100 1016.7
20260509124541 19 360 1.6 12.9 0.00 0.00 0.00 100 1016.8
20260509124035 19 61 4.8 12.9 0.00 0.00 0.00 100 1016.8
20260509123532 19 75 3.2 17.7 0.00 0.00 0.00 100 1016.8
20260509123044 19 43 4.8 17.7 0.00 0.00 0.00 100 1016.9
20260509122536 19 339 6.4 16.1 0.00 0.00 0.00 100 1017.0
20260509122035 19 51 4.8 16.1 0.00 0.00 0.00 100 1017.0
20260509121543 19 76 4.8 17.7 0.00 0.00 0.00 100 1017.1
20260509121037 18 52 4.8 17.7 0.00 0.00 0.00 100 1017.2
20260509120536 19 17 4.8 16.1 0.00 0.00 0.00 100 1017.2
20260509120051 18 332 4.8 16.1 0.00 0.00 0.00 100 1017.2
20260509115535 19 28 3.2 16.1 0.00 0.00 0.00 100 1017.4
20260509115035 19 360 1.6 16.1 0.00 0.00 0.00 100 1017.4
20260509114542 18 28 6.4 17.7 0.00 0.00 0.00 100 1017.5
20260509114035 18 52 4.8 17.7 0.00 0.00 0.00 100 1017.5